Regional Weather Roundup
Issued by NWS Charleston, WV

Home | Current Version | Previous Version | Graphics & Text | Print | Product List | Glossary On
Versions: 1 2 3 4 5 6 7 8 9 10 11 12 13 14 15 16 17 18 19 20 21 22 23 24 25 26 27 28 29 30 31 32 33 34 35 36 37 38 39 40 41 42 43 44 45 46 47 48 49 50
000
ASUS41 KRLX 161110
RWRRLX
West Virginia Regional Weather Roundup
National Weather Service Charleston WV
700 AM EDT TUE SEP 16 2014

Note: "fair" indicates few or no clouds below 12,000 feet with no
significant weather and/or obstructions to visibility.

WVZ003-161200-
Northern Panhandle of West Virginia

CITY           SKY/WX    TMP DP  RH WIND       PRES   REMARKS
WHEELING       LGT RAIN  56  53  90 N6        30.10R
$$

WVZ009-161200-
Northwest West Virginia

CITY           SKY/WX    TMP DP  RH WIND       PRES   REMARKS
PARKERSBURG    CLOUDY    58  56  93 CALM      30.13R
$$

WVZ006-161200-
Western West Virginia

CITY           SKY/WX    TMP DP  RH WIND       PRES   REMARKS
HUNTINGTON     CLOUDY    59  58  96 CALM      30.10R
$$

WVZ015-161200-
West Central West Virginia

CITY           SKY/WX    TMP DP  RH WIND       PRES   REMARKS
CHARLESTON     NOT AVBL
$$

WVZ031-161200-
North Central West Virginia

CITY           SKY/WX    TMP DP  RH WIND       PRES   REMARKS
CLARKSBURG     LGT RAIN  57  54  89 W5        30.10R
MORGANTOWN     CLOUDY    59  54  83 CALM      30.09S
$$

WVZ035-042-045-161200-
South Central West Virginia

CITY           SKY/WX    TMP DP  RH WIND       PRES   REMARKS
BECKLEY        LGT RAIN  59  56  89 N3        30.13S
BLUEFIELD      CLOUDY    61  58  90 SW3       30.15S
LEWISBURG      CLOUDY    62  56  79 W5        30.12R
$$

WVZ047-161200-
Northern Mountains of West Virginia

CITY           SKY/WX    TMP DP  RH WIND       PRES   REMARKS
ELKINS         CLOUDY    57  54  89 NW3       30.11S
$$

WVZ052-161200-
Eastern Panhandle of West Virginia

CITY           SKY/WX    TMP DP  RH WIND       PRES   REMARKS
MARTINSBURG    CLOUDY    59  55  87 CALM      30.04R
PETERSBURG     LGT RAIN  60  58  94 CALM      30.06R
$$



USA.gov is the U.S. government's official web portal to all federal, state and local government web resources and services.